• In Uzbekistan
  • List of Countries
  • For 7 days
  • Water Temperature
  • Weather Map
  • Weather Widgets
  • user-avatar
    Login

    Hourly Weather Bururi

    Today, 25 August, Sunday

    Time Temperature Precipitation Wind Pressure Humidity
    00:00 +19°C° 0 mm 1 mps 617 mmHg 58%
    01:00 +20°C° 0 mm 1 mps 617 mmHg 56%
    02:00 +20°C° 0 mm 1 mps 617 mmHg 53%
    03:00 +20°C° 0 mm 1 mps 617 mmHg 53%
    04:00 +20°C° 0 mm 1 mps 617 mmHg 54%
    05:00 +20°C° 0 mm 1 mps 618 mmHg 54%
    06:00 +20°C° 0 mm 1 mps 618 mmHg 55%
    07:00 +19°C° 0 mm 2 mps 619 mmHg 56%
    08:00 +20°C° 0 mm 3 mps 619 mmHg 55%
    09:00 +21°C° 0.1 mm 3 mps 619 mmHg 53%
    10:00 +22°C° 0.1 mm 3 mps 620 mmHg 51%
    11:00 +24°C° 0.1 mm 2 mps 620 mmHg 50%
    12:00 +23°C° 0.1 mm 2 mps 619 mmHg 52%
    13:00 +23°C° 0.1 mm 2 mps 618 mmHg 54%
    14:00 +23°C° 0.1 mm 2 mps 617 mmHg 56%
    15:00 +23°C° 0.1 mm 2 mps 617 mmHg 55%
    16:00 +23°C° 0.1 mm 2 mps 617 mmHg 54%
    17:00 +23°C° 0.1 mm 2 mps 617 mmHg 53%
    18:00 +21°C° 0 mm 1 mps 617 mmHg 60%
    19:00 +20°C° 0 mm 1 mps 617 mmHg 67%
    20:00 +18°C° 0 mm 1 mps 617 mmHg 74%
    21:00 +18°C° 0 mm 1 mps 617 mmHg 71%
    22:00 +19°C° 0 mm 1 mps 617 mmHg 68%
    23:00 +19°C° 0 mm 1 mps 618 mmHg 66%

    Tomorrow, 26 August, Monday

    Time Temperature Precipitation Wind Pressure Humidity
    00:00 +19°C° 0 mm 1 mps 617 mmHg 65%
    01:00 +18°C° 0 mm 1 mps 617 mmHg 65%
    02:00 +18°C° 0 mm 1 mps 617 mmHg 65%
    03:00 +18°C° 0 mm 1 mps 617 mmHg 64%
    04:00 +18°C° 0 mm 1 mps 617 mmHg 63%
    05:00 +17°C° 0 mm 2 mps 617 mmHg 61%
    06:00 +18°C° 0 mm 2 mps 618 mmHg 60%
    07:00 +19°C° 0 mm 2 mps 619 mmHg 58%
    08:00 +20°C° 0 mm 2 mps 620 mmHg 56%
    09:00 +21°C° 0 mm 2 mps 620 mmHg 52%
    10:00 +22°C° 0 mm 3 mps 620 mmHg 49%
    11:00 +25°C° 0 mm 3 mps 620 mmHg 45%
    12:00 +25°C° 0 mm 3 mps 619 mmHg 44%
    13:00 +25°C° 0 mm 2 mps 618 mmHg 43%
    14:00 +26°C° 0 mm 2 mps 618 mmHg 41%
    15:00 +25°C° 0 mm 2 mps 617 mmHg 42%
    16:00 +25°C° 0 mm 2 mps 617 mmHg 42%
    17:00 +25°C° 0 mm 2 mps 617 mmHg 43%
    18:00 +23°C° 0 mm 2 mps 617 mmHg 49%
    19:00 +21°C° 0 mm 1 mps 617 mmHg 55%
    20:00 +20°C° 0 mm 1 mps 617 mmHg 61%
    21:00 +19°C° 0 mm 1 mps 617 mmHg 60%
    22:00 +19°C° 0 mm 1 mps 617 mmHg 59%
    23:00 +19°C° 0 mm 1 mps 617 mmHg 57%

    Day after tomorrow, 27 August, Tuesday

    Time Temperature Precipitation Wind Pressure Humidity
    00:00 +19°C° 0 mm 1 mps 617 mmHg 57%
    01:00 +19°C° 0 mm 1 mps 617 mmHg 56%
    02:00 +19°C° 0 mm 1 mps 617 mmHg 55%
    03:00 +19°C° 0.1 mm 1 mps 617 mmHg 57%
    04:00 +19°C° 0.1 mm 1 mps 617 mmHg 58%
    05:00 +18°C° 0.1 mm 2 mps 617 mmHg 60%
    06:00 +19°C° 0 mm 2 mps 618 mmHg 57%
    07:00 +20°C° 0 mm 2 mps 619 mmHg 55%
    08:00 +21°C° 0 mm 2 mps 620 mmHg 52%
    09:00 +23°C° 0 mm 2 mps 620 mmHg 49%
    10:00 +25°C° 0 mm 2 mps 620 mmHg 45%
    11:00 +26°C° 0 mm 2 mps 620 mmHg 42%
    12:00 +26°C° 0 mm 2 mps 619 mmHg 41%
    13:00 +26°C° 0 mm 2 mps 619 mmHg 41%
    14:00 +26°C° 0 mm 2 mps 618 mmHg 40%
    15:00 +25°C° 0 mm 2 mps 618 mmHg 41%
    16:00 +25°C° 0 mm 2 mps 617 mmHg 42%
    17:00 +25°C° 0 mm 2 mps 617 mmHg 42%
    18:00 +23°C° 0 mm 1 mps 617 mmHg 47%
    19:00 +22°C° 0 mm 1 mps 617 mmHg 52%
    20:00 +21°C° 0 mm 1 mps 617 mmHg 57%
    21:00 +20°C° 0 mm 1 mps 617 mmHg 58%
    22:00 +20°C° 0 mm 1 mps 617 mmHg 58%
    23:00 +19°C° 0 mm 1 mps 617 mmHg 59%

    28 August, Wednesday

    Time Temperature Precipitation Wind Pressure Humidity
    00:00 +19°C° 0 mm 1 mps 617 mmHg 58%
    01:00 +19°C° 0 mm 1 mps 617 mmHg 57%
    02:00 +19°C° 0 mm 1 mps 616 mmHg 56%
    03:00 +19°C° 0 mm 1 mps 616 mmHg 56%
    04:00 +18°C° 0 mm 1 mps 616 mmHg 56%
    05:00 +18°C° 0 mm 1 mps 616 mmHg 56%
    06:00 +19°C° 0 mm 2 mps 617 mmHg 52%
    07:00 +20°C° 0 mm 2 mps 618 mmHg 49%
    08:00 +22°C° 0 mm 3 mps 619 mmHg 45%
    09:00 +24°C° 0 mm 3 mps 619 mmHg 42%
    10:00 +26°C° 0 mm 3 mps 619 mmHg 39%
    11:00 +27°C° 0 mm 3 mps 620 mmHg 36%
    12:00 +27°C° 0 mm 3 mps 619 mmHg 36%
    13:00 +27°C° 0 mm 2 mps 618 mmHg 37%
    14:00 +27°C° 0 mm 2 mps 617 mmHg 37%
    15:00 +26°C° 0 mm 2 mps 617 mmHg 37%
    16:00 +26°C° 0 mm 2 mps 617 mmHg 38%
    17:00 +26°C° 0 mm 2 mps 616 mmHg 38%
    18:00 +24°C° 0 mm 1 mps 616 mmHg 43%
    19:00 +22°C° 0 mm 1 mps 616 mmHg 47%
    20:00 +20°C° 0 mm 1 mps 616 mmHg 52%
    21:00 +20°C° 0 mm 1 mps 616 mmHg 51%
    22:00 +20°C° 0 mm 1 mps 617 mmHg 49%
    23:00 +20°C° 0 mm 1 mps 617 mmHg 47%

    29 August, Thursday

    Time Temperature Precipitation Wind Pressure Humidity
    00:00 +20°C° 0 mm 1 mps 617 mmHg 48%
    01:00 +20°C° 0 mm 1 mps 616 mmHg 48%
    02:00 +19°C° 0 mm 1 mps 616 mmHg 48%
    03:00 +19°C° 0 mm 1 mps 616 mmHg 49%
    04:00 +19°C° 0 mm 1 mps 616 mmHg 49%
    05:00 +19°C° 0 mm 1 mps 616 mmHg 49%
    06:00 +21°C° 0 mm 1 mps 617 mmHg 45%
    07:00 +23°C° 0 mm 1 mps 619 mmHg 40%
    08:00 +26°C° 0 mm 1 mps 620 mmHg 35%
    09:00 +26°C° 0 mm 1 mps 620 mmHg 35%
    10:00 +27°C° 0 mm 2 mps 619 mmHg 34%
    11:00 +27°C° 0 mm 3 mps 619 mmHg 34%
    12:00 +28°C° 0 mm 3 mps 619 mmHg 33%
    13:00 +28°C° 0 mm 3 mps 618 mmHg 32%
    14:00 +28°C° 0 mm 3 mps 617 mmHg 32%
    15:00 +27°C° 0 mm 3 mps 617 mmHg 33%
    16:00 +27°C° 0 mm 3 mps 617 mmHg 35%
    17:00 +26°C° 0 mm 2 mps 616 mmHg 36%
    18:00 +24°C° 0 mm 2 mps 616 mmHg 40%
    19:00 +22°C° 0 mm 1 mps 616 mmHg 44%
    20:00 +20°C° 0 mm 1 mps 616 mmHg 48%
    21:00 +20°C° 0 mm 1 mps 616 mmHg 47%
    22:00 +20°C° 0 mm 1 mps 616 mmHg 45%
    23:00 +20°C° 0 mm 1 mps 616 mmHg 44%

    30 August, Friday

    Time Temperature Precipitation Wind Pressure Humidity
    00:00 +20°C° 0 mm 1 mps 616 mmHg 42%
    01:00 +21°C° 0 mm 1 mps 616 mmHg 41%
    02:00 +21°C° 0 mm 1 mps 616 mmHg 39%
    03:00 +21°C° 0 mm 1 mps 616 mmHg 41%
    04:00 +20°C° 0 mm 1 mps 616 mmHg 43%
    05:00 +18°C° 0 mm 0 mps 616 mmHg 44%
    06:00 +21°C° 0 mm 1 mps 617 mmHg 42%
    07:00 +23°C° 0 mm 2 mps 618 mmHg 39%
    08:00 +24°C° 0 mm 2 mps 619 mmHg 37%
    09:00 +25°C° 0 mm 3 mps 619 mmHg 35%
    10:00 +26°C° 0 mm 3 mps 619 mmHg 33%
    11:00 +27°C° 0 mm 4 mps 619 mmHg 32%
    12:00 +27°C° 0 mm 4 mps 618 mmHg 32%
    13:00 +27°C° 0 mm 3 mps 617 mmHg 33%
    14:00 +27°C° 0 mm 3 mps 616 mmHg 33%
    15:00 +27°C° 0 mm 3 mps 616 mmHg 35%
    16:00 +26°C° 0 mm 3 mps 616 mmHg 37%
    17:00 +26°C° 0 mm 2 mps 616 mmHg 39%
    18:00 +24°C° 0 mm 2 mps 615 mmHg 44%
    19:00 +22°C° 0 mm 1 mps 615 mmHg 49%
    20:00 +20°C° 0 mm 1 mps 615 mmHg 54%
    21:00 +20°C° 0 mm 1 mps 615 mmHg 53%
    22:00 +20°C° 0 mm 1 mps 616 mmHg 52%
    23:00 +20°C° 0 mm 1 mps 616 mmHg 52%
    Show more